Voltar ao catálogo

THOR ABLESTAR DEB

AtivoLEO
NORAD 15783·DEBRIS·🇺🇸 United States

Lançado Jun 29, 1961 de Cape Canaveral Space Force Station

Loading…

Próximas Passagens (próximas 24 horas)

TLE

AtualizadoSource: Space-Track

Época: Sep 14, 2026, 03:58 UTC

1 15783U 61015LG  26257.16566818  .00004333  00000-0  51974-3 0  9992
2 15783  67.0361 155.7689 0033335 158.3235 352.4448 14.84657593196024

Acompanhe THOR ABLESTAR DEB em tempo real com AllMySat

Download on the App Store